Startseite
Über Mich
AHP4
Galerie
Sehschlangen
Tourenbuch
Bookmarks
Elektronik
Bewertung
Geschichten
[Tagesmessung] [Jahreswerte] [Information]

Messwerte vom 02.04.2020

Die letzten Messwerte von 19:04:23 Uhr:
KategorieMesswert
Temperatur [°C]9
Luftdruck [mBar]995
Sonneneinstrahlung153
Wind [km/h]8
Niederschlag [l/m²]0

Diagramme
Messwerte vom 02.04.2020
Tagesaggregation
KategorieMinimumMaximumSchnittSumme
Temperatur [°C]5127.8927
Luftdruck [mBar]9941002997.8717
Sonneneinstrahlung244132.5838
Wind [km/h]29
Niederschlag [l/m²]0
Einordnung alsVegetationstag

Messungen an benachbarten Tagen: Zur Jahresaggregation 2020
Tabelle aller Messwerte
UhrzeitTemperatur [°C]Luftdruck [mBar]SonneWind [km/h]Regen [l/m²]rF [%]
00:01:23 7 1002 0 3 0 32.2
00:04:23 7 1002 0 3 0 32.3
00:07:24 7 1002 0 3 0 32.4
00:10:23 7 1002 0 0 0 32.4
00:13:23 7 1002 0 1 0 32.5
00:16:24 7 1002 0 2 0 32.5
00:19:24 7 1002 0 3 0 32.5
00:22:22 7 1002 0 3 0 65
00:25:24 7 1002 0 0 0 32.6
00:28:25 7 1002 0 1 0 32.6
00:31:24 7 1002 0 1 0 32.6
00:34:24 6 1002 0 1 0 32.5
00:37:23 7 1002 0 1 0 32.5
00:40:23 7 1002 0 2 0 32.5
00:43:24 7 1002 0 1 0 32.5
00:46:24 7 1002 0 0 0 32.6
00:49:24 7 1001 0 1 0 32.5
00:52:24 7 1002 0 1 0 32.6
00:55:23 6 1001 0 2 0 32.7
00:58:23 6 1001 0 1 0 32.7
01:01:25 6 1002 0 2 0 32.7
01:04:24 6 1002 0 2 0 32.7
01:07:24 6 1002 0 0 0 32.7
01:10:24 6 1001 0 2 0 32.7
01:13:24 6 1002 0 2 0 32.8
01:16:23 6 1002 0 3 0 32.8
01:19:25 6 1002 0 2 0 32.8
01:22:24 6 1002 0 2 0 32.7
01:25:24 6 1002 0 2 0 32.7
01:28:23 6 1001 0 2 0 32.7
01:31:24 6 1001 0 2 0 32.7
01:34:25 6 1002 0 2 0 32.8
01:37:22 6 1001 0 3 0 32.7
01:40:24 6 1001 0 4 0 32.7
01:43:24 6 1002 0 0 0 32.7
01:46:22 6 1001 0 4 0 32.7
01:49:23 6 1001 0 0 0 32.6
01:52:23 6 1001 0 2 0 32.6
01:55:23 6 1002 0 2 0 32.6
01:58:23 6 1002 0 2 0 32.7
02:01:26 6 1001 0 2 0 32.6
02:04:24 6 1000 0 2 0 32.8
02:07:24 6 1001 0 0 0 39.8
02:10:23 6 1001 0 0 0 32.7
02:13:24 6 1000 0 2 0 32.7
02:16:25 6 1001 0 3 0 32.8
02:19:24 6 1000 0 1 0 32.8
02:22:23 6 1001 0 0 0 32.8
02:25:26 6 1000 0 2 0 32.8
02:28:24 6 1000 0 2 0 32.9
02:31:24 6 1001 0 3 0 32.9
02:34:24 6 1000 0 2 0 32.9
02:37:23 6 1000 0 2 0 33
02:40:24 6 1000 0 3 0 33.1
02:43:24 6 1000 0 3 0 33.1
02:46:23 6 1000 0 3 0 33.1
02:49:23 6 1000 0 2 0 33.1
02:52:23 6 1000 0 3 0 33.1
02:55:24 6 1000 0 4 0 33.2
02:58:22 6 1000 0 2 0 33.1
03:01:24 6 1000 0 3 0 33.1
03:04:25 6 1000 0 2 0 33.1
03:07:24 6 1000 0 3 0 33.1
03:10:22 6 1000 0 3 0 66.2
03:13:23 6 1000 0 4 0 33.2
03:16:23 6 1000 0 1 0 33.2
03:19:24 6 999 0 0 0 33.2
03:22:24 6 1000 0 6 0 33.2
03:25:24 6 1000 0 2 0 33.2
03:28:22 6 999 0 6 0 33.1
03:31:22 6 999 0 4 0 33.1
03:34:23 6 1000 0 4 0 33.1
03:37:24 6 1000 0 4 0 33.1
03:40:22 6 1000 0 4 0 33.1
03:43:25 6 1000 0 3 0 33.1
03:46:22 6 999 0 3 0 33.1
03:49:23 6 999 0 3 0 33.2
03:52:22 6 999 0 4 0 33.1
03:55:23 6 999 0 8 0 33.2
03:58:22 6 999 0 7 0 33.2
04:01:22 6 999 0 3 0 33.3
04:04:22 6 999 0 4 0 33.3
04:07:23 6 999 0 6 0 33.4
04:10:23 6 999 0 4 0 33.3
04:13:22 6 999 0 4 0 33.4
04:16:23 6 1000 0 5 0 33.5
04:19:23 6 999 0 5 0 33.4
04:22:23 6 999 0 8 0 33.5
04:25:23 6 999 0 8 0 33.5
04:28:23 6 998 0 5 0 33.5
04:31:22 6 999 0 5 0 33.5
04:34:23 6 999 0 9 0 33.5
04:37:24 6 1000 0 6 0 33.6
04:40:23 6 1000 0 8 0 33.6
04:43:22 6 999 0 4 0 33.7
04:46:22 6 999 0 7 0 33.6
04:49:22 6 998 0 3 0 33.7
04:52:23 6 999 0 9 0 33.7
04:55:23 6 999 0 7 0 33.8
04:58:23 6 999 0 4 0 33.7
05:01:23 6 999 0 9 0 33.8
05:04:22 6 999 0 4 0 33.7
05:07:23 5 999 0 5 0 33.7
05:10:23 6 999 0 9 0 33.6
05:13:23 5 998 0 8 0 33.6
05:16:22 5 999 0 4 0 33.6
05:19:22 5 999 0 5 0 33.6
05:22:23 5 999 0 6 0 33.5
05:25:23 5 998 0 1 0 33.5
05:28:23 5 999 0 1 0 33.5
05:31:49 5 998 0 2 0 33.5
05:34:25 5 999 0 2 0 33.4
05:37:24 5 998 0 4 0 33.5
05:40:22 5 999 0 7 0 33.5
05:43:23 5 999 0 8 0 33.5
05:46:23 5 998 0 4 0 33.5
05:49:23 5 999 0 3 0 33.5
05:52:29 5 998 0 4 0 33.5
05:55:24 5 998 0 4 0 33.5
05:58:23 5 999 0 3 0 33.5
06:01:23 5 999 0 3 0 33.6
06:04:24 5 999 0 6 0 33.6
06:07:23 5 998 0 7 0 33.6
06:10:24 5 999 0 2 0 33.6
06:13:23 5 999 0 2 0 33.6
06:16:23 5 998 0 7 0 33.6
06:19:23 5 999 0 2 0 33.6
06:22:23 5 999 0 11 0 33.5
06:25:24 5 998 3 6 0 33.6
06:28:23 5 998 5 4 0 33.5
06:31:23 5 998 8 3 0 33.6
06:34:24 5 998 12 7 0 33.6
06:37:23 5 998 19 5 0 33.7
06:40:24 5 998 27 2 0 33.7
06:43:23 5 998 36 3 0 33.7
06:46:24 5 999 46 7 0 33.6
06:49:25 5 999 55 2 0 33.6
06:52:24 5 998 66 4 0 33.6
06:55:24 5 998 76 3 0 33.6
06:58:23 5 999 86 3 0 33.7
07:01:23 5 998 97 0 0 33.7
07:04:25 5 998 106 2 0 33.8
07:07:24 5 998 113 2 0 33.7
07:10:24 5 998 115 2 0 33.8
07:13:24 5 998 120 1 0 33.7
07:16:23 5 998 124 6 0 33.7
07:19:25 5 998 128 6 0 33.7
07:22:23 5 998 133 6 0 33.6
07:25:24 5 998 143 2 0 33.7
07:28:24 5 999 150 2 0 33.9
07:31:24 5 999 157 7 0 34.1
07:34:24 5 998 162 6 0 34.4
07:37:25 5 998 167 6 0 35.6
07:40:23 6 998 171 6 0 35.9
07:43:25 6 998 174 2 0 36.8
07:46:22 6 998 177 5 0 25.6
07:49:25 6 998 179 5 0 38.4
07:52:24 6 998 181 0 0 38.3
07:55:23 6 998 179 5 0 38.2
07:58:25 6 998 181 4 0 38.2
08:01:25 6 998 186 6 0 38
08:04:24 6 998 188 4 0 37.7
08:07:24 6 998 189 4 0 75
08:10:24 6 998 191 5 0 37.4
08:13:25 6 999 193 12 0 37.2
08:16:24 6 998 194 6 0 36.9
08:19:26 6 998 196 11 0 36.8
08:22:25 6 998 197 6 0 36.6
08:25:25 6 998 198 8 0 36.5
08:28:25 6 999 199 4 0 36.3
08:31:25 6 998 200 4 0 36.1
08:34:25 6 998 201 6 0 36
08:37:25 6 999 203 9 0 35.8
08:40:24 6 998 204 9 0 35.7
08:43:25 7 998 205 10 0 35.5
08:46:24 7 998 206 7 0 35.3
08:49:25 7 998 207 5 0 35.2
08:52:25 7 998 208 6 0 35.1
08:55:24 7 998 209 4 0 35
08:58:23 7 998 210 4 0 34.9
09:01:25 7 998 210 5 0 34.7
09:04:24 7 998 211 10 0 34.7
09:07:24 7 998 211 11 0 34.4
09:10:24 7 998 212 6 0 34.1
09:13:23 7 998 213 7 0 34.1
09:16:23 7 998 213 7 0 34.1
09:19:25 8 998 213 11 0 34
09:22:25 8 998 213 6 0 42.2
09:25:25 8 998 213 7 0 33.8
09:28:24 8 998 212 5 0 33.6
09:31:24 8 998 212 9 0 33.3
09:34:25 8 998 213 3 0 33.3
09:37:25 8 999 213 7 0 33.2
09:40:25 8 998 212 10 0 33.1
09:43:24 8 998 213 4 0 33.1
09:46:25 8 998 212 5 0 33
09:49:26 8 998 212 4 0 32.9
09:52:26 8 998 212 5 0 32.8
09:55:25 8 998 210 14 0 32.8
09:58:25 8 998 210 16 0 32.7
10:01:25 8 998 211 10 0 32.9
10:04:25 9 998 211 15 0 33
10:07:25 8 998 213 16 0 33.1
10:10:25 9 998 215 3 0 33.3
10:13:25 9 998 216 10 0 33.8
10:16:25 9 998 215 8 0 33.7
10:19:25 9 998 213 12 0 33.7
10:22:26 9 998 214 14 0 33.7
10:25:24 9 998 213 4 0 33.8
10:28:25 9 998 213 10 0 33.7
10:31:23 9 998 213 3 0 33.7
10:34:25 9 998 214 12 0 33.7
10:37:26 9 998 215 6 0 33.9
10:40:25 9 998 216 19 0 33.8
10:43:25 9 998 214 6 0 33.9
10:46:24 9 998 213 7 0 33.9
10:49:25 9 998 210 7 0 33.7
10:52:24 9 998 210 8 0 33.6
10:55:25 9 998 210 6 0 33.6
10:58:24 9 998 210 14 0 33.5
11:01:25 9 998 210 13 0 33.4
11:04:24 9 998 210 8 0 33.4
11:07:25 9 998 210 13 0 33.2
11:10:25 9 998 214 13 0 33.5
11:13:24 10 998 213 9 0 33.6
11:16:25 10 998 213 4 0 33.5
11:19:27 10 998 214 3 0 66.6
11:22:25 10 998 216 18 0 33.2
11:25:26 10 998 215 9 0 33.2
11:28:25 10 998 216 16 0 33.1
11:31:25 10 998 219 7 0 33.2
11:34:24 10 998 215 8 0 33.2
11:37:26 10 998 218 12 0 32.8
11:40:26 10 998 218 10 0 32.8
11:43:26 10 998 221 10 0 32.8
11:46:26 11 998 227 9 0 32.8
11:49:25 11 998 228 15 0 32.8
11:52:25 11 998 228 13 0 32.9
11:55:26 11 998 228 18 0 32.9
11:58:25 11 998 224 16 0 32.9
12:01:25 10 998 217 9 0 33
12:04:26 10 998 210 16 0 33
12:07:25 10 998 207 14 0 33.1
12:10:25 10 998 208 11 0 33
12:13:25 10 998 204 13 0 33
12:16:25 9 998 203 9 0 32.7
12:19:24 9 998 202 9 0 32.6
12:22:25 9 998 204 14 0 32.5
12:25:26 9 998 208 13 0 32.5
12:28:25 9 998 210 9 0 32.5
12:31:24 9 998 212 8 0 32.5
12:34:25 9 998 215 7 0 32.6
12:37:24 9 998 217 8 0 32.5
12:40:27 10 998 219 10 0 32.6
12:43:25 10 997 221 10 0 32.6
12:46:25 10 998 221 8 0 32.7
12:49:25 10 998 224 5 0 32.8
12:52:26 10 998 225 9 0 33
12:55:25 10 998 225 10 0 33.1
12:58:25 10 997 221 8 0 33.1
13:01:26 10 998 218 10 0 33.3
13:04:26 10 997 216 28 0 33.2
13:07:25 10 998 217 11 0 33.3
13:10:24 10 997 217 6 0 33.3
13:13:26 10 997 218 14 0 33.4
13:16:25 10 998 220 7 0 33.4
13:19:25 10 997 221 7 0 33.2
13:22:25 10 997 221 5 0 33
13:25:26 10 997 221 6 0 32.8
13:28:25 10 997 220 9 0 32.8
13:31:25 10 998 220 5 0 32.7
13:34:27 10 996 223 14 0 32.8
13:37:26 10 996 225 7 0 32.9
13:40:26 10 996 226 10 0 32.8
13:43:28 10 996 229 12 0 32.6
13:46:26 11 996 230 12 0 33.4
13:49:24 11 996 228 12 0 34.2
13:52:24 11 996 224 7 0 34.8
13:55:26 11 997 220 10 0 34.9
13:58:25 10 996 221 4 0 34.4
14:01:24 10 996 224 9 0 35.5
14:04:25 11 996 227 16 0 37.7
14:07:25 10 995 229 9 0 38.7
14:10:25 10 996 231 19 0 37.7
14:13:25 11 996 232 19 0 38.3
14:16:24 11 996 231 10 0 38.1
14:19:25 11 996 231 5 0 37.9
14:22:25 11 995 230 8 0 37.6
14:25:25 11 996 230 11 0 37.3
14:28:23 11 996 230 8 0 37.3
14:31:25 11 996 229 11 0 36.6
14:34:27 11 995 229 16 0 36.5
14:37:24 11 995 231 6 0 36.4
14:40:26 11 995 235 24 0 36.4
14:43:25 12 995 238 16 0 36.1
14:46:24 11 995 241 17 0 36
14:49:26 12 995 242 23 0 35.7
14:52:25 11 995 226 29 0 35.7
14:55:24 11 995 220 12 0 35.6
14:58:25 11 995 218 14 0 35.6
15:01:25 10 995 221 11 0 35.5
15:04:25 10 995 226 10 0 35.3
15:07:25 11 995 227 13 0 35.3
15:10:25 11 995 229 7 0 35
15:13:25 11 995 233 13 0 35
15:16:25 11 995 228 9 0 34.6
15:19:24 11 995 228 7 0 34.6
15:22:25 11 995 231 14 0 34.7
15:25:24 11 995 238 16 0 43.4
15:28:24 11 995 244 14 0 34.3
15:31:24 11 995 223 5 0 34.4
15:34:24 11 995 217 6 0 34.2
15:37:25 10 995 216 12 0 34.3
15:40:24 11 995 216 11 0 34.1
15:43:25 10 995 216 8 0 33.8
15:46:25 10 995 221 16 0 33.6
15:49:27 11 995 224 9 0 33.5
15:52:26 10 995 222 13 0 33.3
15:55:25 10 995 224 9 0 33.2
15:58:25 10 995 226 9 0 33
16:01:26 10 995 228 12 0 32.9
16:04:26 10 995 222 9 0 32.8
16:07:27 10 995 216 18 0 32.8
16:10:26 10 995 214 17 0 32.8
16:13:26 10 995 216 23 0 32.9
16:16:25 10 995 219 9 0 32.8
16:19:28 10 995 216 11 0 32.7
16:22:24 10 995 213 8 0 32.7
16:25:26 10 995 214 9 0 32.6
16:28:25 10 995 216 12 0 32.6
16:31:26 10 995 218 16 0 32.6
16:34:26 10 995 219 13 0 32.6
16:37:26 10 995 222 12 0 32.5
16:40:27 10 995 217 14 0 32.4
16:43:26 10 995 215 11 0 32.3
16:46:26 10 995 212 16 0 32.4
16:49:26 10 995 218 11 0 32.3
16:52:25 10 995 220 11 0 32.4
16:55:25 10 995 233 17 0 32.6
16:58:25 10 995 231 12 0 32.8
17:01:25 10 995 226 6 0 32.9
17:04:25 11 995 223 7 0 33
17:07:25 10 995 220 9 0 32.8
17:10:25 10 995 218 8 0 33
17:13:25 10 995 220 16 0 33
17:16:25 10 995 217 10 0 33.2
17:19:25 10 995 214 6 0 33.1
17:22:24 10 995 215 7 0 33.1
17:25:24 10 995 221 8 0 33.1
17:28:25 10 995 221 8 0 33.2
17:31:26 10 995 218 21 0 33.2
17:34:26 10 995 218 11 0 33.3
17:37:25 10 995 223 20 0 33.4
17:40:25 10 995 217 16 0 33.4
17:43:27 10 995 205 9 0 33.5
17:46:24 10 995 204 17 0 33.6
17:49:23 9 995 202 5 0 33.4
17:52:25 9 995 198 20 0 33.6
17:55:25 9 995 202 15 0 33.5
17:58:25 10 995 197 16 0 33
18:01:26 10 995 196 24 0 33.4
18:04:24 9 995 204 19 0 33.1
18:07:26 10 995 196 10 0 33.1
18:10:25 9 995 191 12 0 32.5
18:13:24 10 995 191 11 0 33.1
18:16:23 9 995 184 7 0 33
18:19:25 10 995 183 4 0 32.9
18:22:26 10 995 181 6 0 32.8
18:25:23 9 995 187 4 0 32.7
18:28:26 10 995 184 12 0 32.8
18:31:25 9 995 183 20 0 32.8
18:34:25 9 995 177 11 0 32.8
18:37:24 9 995 173 9 0 32.8
18:40:26 9 995 177 18 0 32.8
18:43:25 9 995 179 11 0 32.8
18:46:24 9 994 173 10 0 32.7
18:49:26 9 995 171 9 0 32.5
18:52:24 9 995 166 9 0 32.6
18:55:24 9 995 164 9 0 32.8
18:58:24 9 995 159 3 0 32.9
19:01:24 9 994 159 13 0 33
19:04:23 9 995 153 8 0 33

Letzte Änderung : 29-Nov-2019
Copyright Jens Köhler, Wolfsburg, Obere Dorfstraße 10d